www.pogodaiklimat.ru

Погода и климат >> Архив погоды >> Аргентина >> Ресистенсия


ПОГОДА в Ресистенсии

  • Прогноз погоды в Ресистенсии
  • Монитор погоды в Ресистенсии

АРХИВ ПОГОДЫ в Ресистенсии

Время (UTC), дата Ветер
(напр.,м/с)
 
Видим.   Явления Облачность Т
(С)
Тd
(С)
f
(%)
Тe
(С)
Тes
(С)
Комфортность P
(гПа)
Po
(гПа)
Тmin
(С)
Tmax
(С)
R
(мм)
R24
(мм)
S
(см)
03 16.04 Ю 3 15 км 3/0
[Ac As]
+19.2 +18.9 98 +22 +22 комфорт 1016.3 1010.2
06 16.04 Ю 3 15 км 10/10 240 м
[St]
+19.0 +18.7 98 +21 +21 комфорт 1017.4 1011.4
09 16.04 Ю 3 15 км 10/10 300 м
[St]
+18.6 +17.8 95 +20 +20 1018.0 1012.0
12 16.04 Ю 4 15 км в посл. час морось 10/10 540 м
[Sc]
+18.7 +17.2 91 +20 +20 1019.1 1012.9 +18.1 +20.0 0.1
15 16.04 Ю 4 15 км 9/9 540 м
[Sc]
+21.9 +17.4 76 +26 +27 душно 1019.2 1013.0
18 16.04 Ю 3 15 км 3/3 870 м
[Sc]
+24.7 +17.4 64 +29 +34 душно 1016.5 1010.4
21 16.04 Ю 3 15 км 1/0
[Ac trans]
+23.5 +17.5 69 +27 +28 душно 1015.2 1009.0
00 17.04 ЮВ 2 15 км 4/0
[Ac und]
+19.5 +16.4 82 +22 +22 комфорт 1015.7 1009.6 +18.6 +26.2
03 17.04 З 1 6000 м местами туман поземный туман 1/0
[Ac trans Ci fib]
+16.2 +15.9 98 +18 +18 1015.6 1009.4
06 17.04 СЗ 1 4000 м дымка {туман} ясно +14.9 +14.6 98 +15 +15 1015.6 1009.4
09 17.04 Ю 1 3000 м местами туман поземный туман 4/4 300 м
[St]
+13.5 +13.1 97 +14 +14 1014.7 1008.6
12 17.04 ЮВ 1 5000 м дымка {туман} 9/9 360 м
[St]
+17.8 +17.5 98 +19 +19 1016.6 1010.4 +13.2 +19.5
15 17.04 В 3 15 км 5/5 630 м
[Sc Ci fib]
+23.2 +17.1 69 +28 +34 душно 1015.8 1009.7
18 17.04 Ю 1 15 км ясно +25.2 +16.0 57 +29 +40 душно 1013.2 1007.0
00 18.04 ЮВ 2 12 км дым ясно +18.0 +15.7 86 +19 +19 1013.6 1007.4 +17.7 +26.5
03 18.04 ЮВ 1 15 км ясно +16.3 +15.8 97 +17 +17 1013.6 1007.4
06 18.04 Ю 2 15 км 1/0
[Ac trans]
+15.1 +14.8 98 +15 +15 1013.2 1007.0
09 18.04 В 1 15 км местами туман поземный ясно +14.1 +13.7 97 +15 +15 1012.1 1006.0
12 18.04 СВ 1 5000 м в посл. час туман туман ясно +19.6 +18.5 93 +24 +27 комфорт 1013.4 1007.3 +13.5 +19.6
15 18.04 В 2 10 км дым 1/0
[Ci sp]
+27.2 +17.7 56 +31 +43 душно 1013.2 1007.0
18 18.04 СВ 3 15 км 5/0
[Ac und]
+29.3 +17.6 49 +33 +38 душно 1009.9 1003.8
21 18.04 В 2 15 км ясно +27.3 +19.2 61 +33 +33 очень
душно
1008.8 1002.6
00 19.04 В 2 8000 м дым ясно +23.4 +18.4 74 +30 +30 очень
душно
1010.2 1004.1 +19.6 +30.3
03 19.04 В 3 15 км 1/1 1000 м
[Sc]
+21.8 +18.8 83 +27 +27 душно 1010.6 1004.6
06 19.04 В 2 15 км 6/0
[Ac und]
+21.1 +19.1 88 +25 +25 комфорт 1010.4 1004.4
09 19.04 В 2 15 км 9/0
[Ac und]
+21.1 +18.6 86 +25 +25 комфорт 1010.3 1004.2
12 19.04 В 2 15 км 9/0
[Ac As]
+22.7 +19.3 81 +29 +30 очень
душно
1011.7 1005.7 +20.5 +23.5
15 19.04 СВ 4 15 км 9/0
[Ac cast Cs]
+28.2 +19.4 59 +34 +38 очень
душно
1011.5 1005.4
18 19.04 В 2 15 км 9/0
[Ac As Cs]
+29.0 +22.1 66 +37 +42 очень
душно
1008.6 1002.6
21 19.04 В 2 15 км 9/0
[As op Cs]
+26.4 +22.4 79 +35 +35 очень
душно
1007.4 1001.4
00 20.04 В 3 15 км зарница 10/1 1500 м
[Cb cap As op Cs]
+26.0 +22.3 80 +34 +34 очень
душно
1008.0 1002.0 +22.6 +29.2
03 20.04 Ю 2 15 км зарница 8/1 1500 м
[Cb cap Ac As Cs]
+24.8 +22.1 85 +32 +32 очень
душно
1009.2 1003.3
06 20.04 В 2 10 км гроза, ливневой дождь 10/5 1380 м
[Cb cap As op]
+23.5 +21.6 89 +30 +30 очень
душно
1007.9 1002.0
09 20.04 нст 3 7000 м гроза, ливневой дождь 10/5 1320 м
[Cb cap As op]
+23.0 +23.0 100 +32 +32 очень
душно
1007.6 1001.6
12 20.04 Ю 3 1600 м гроза, ливневой дождь 10/8 120 м
[Cb cap As op]
+21.7 +21.7 100 +28 +28 душно 1010.0 1004.0 +20.9 +26.1 124
15 20.04 С 3 7000 м гроза, ливневой дождь 10/8 120 м
[Cb cap As op]
+22.8 +22.4 98 +31 +31 очень
душно
1010.8 1004.8
18 20.04 В 1 4000 м гроза, ливневой дождь 10/5 870 м
[Cb cap As op Cs]
+23.1 +23.0 99 +32 +35 очень
душно
1010.2 1004.2 16
21 20.04 В 1 15 км гроза без осадков 9/3 300 м
[Cb cap As op Cs]
+23.7 +23.3 98 +32 +32 очень
душно
1008.2 1002.2
00 21.04 В 2 15 км {гроза} 10/10 210 м
[St]
+22.8 +22.4 98 +31 +31 очень
душно
1010.0 1004.0 +21.6 +24.0 0.0
03 21.04 В 1 15 км 4/0
[Ac As Cs]
+22.2 +21.9 98 +29 +29 очень
душно
1009.8 1003.8
06 21.04 Ю 2 15 км 10/10 120 м
[St]
+22.0 +21.7 98 +29 +29 очень
душно
1008.8 1002.8
09 21.04 Ю 1 15 км в посл. час морось 10/10 180 м
[St]
+21.5 +21.2 98 +27 +27 душно 1008.6 1002.6
12 21.04 ЮВ 2 15 км {морось} 10/10 240 м
[St]
+22.2 +21.6 96 +29 +29 очень
душно
1010.7 1004.6 +21.3 +23.0 0.0
15 21.04 ЮВ 2 15 км в посл. час морось 10/10 400 м
[St]
+23.0 +21.5 91 +31 +31 очень
душно
1011.7 1005.7
18 21.04 Ю 4 15 км {морось} 10/6 540 м
[Sc Ac As]
+25.0 +21.7 82 +32 +33 очень
душно
1010.0 1004.0 0.2
21 21.04 ЮВ 2 15 км 10/6 800 м
[Sc Ac As]
+24.4 +21.4 83 +31 +31 очень
душно
1010.1 1004.1
00 22.04 ЮВ 3 15 км 8/0
[Ac As]
+22.3 +21.4 95 +29 +29 очень
душно
1011.4 1005.4 +22.1 +25.0
03 22.04 Ю 4 15 км 10/10 300 м
[St]
+21.0 +20.4 96 +26 +26 душно 1012.3 1006.2
06 22.04 ЮВ 3 15 км 10/10 210 м
[St]
+20.5 +19.7 95 +25 +25 комфорт 1012.7 1006.6
09 22.04 ЮВ 4 8000 м слаб. морось 10/10 180 м
[St]
+19.5 +19.3 99 +22 +22 комфорт 1012.0 1005.8
12 22.04 ЮВ 1 8000 м дымка 10/10 210 м
[St]
+19.7 +18.4 92 +23 +23 комфорт 1014.1 1008.0 +18.8 +22.5 0.0
15 22.04 ЮВ 4 8000 м дым 10/10 270 м
[St]
+21.3 +18.0 81 +25 +25 комфорт 1014.0 1007.8
18 22.04 Ю 3 9000 м дымка 10/10 450 м
[St]
+22.2 +19.6 85 +28 +28 душно 1012.8 1006.6
21 22.04 Ю 4 1300 м морось 10/10 270 м
[Frnb]
+20.1 +19.8 98 +24 +24 комфорт 1013.0 1006.9

 

Местоположение метеостанции Ресистенсия (Аргентина): широта -27.45 долгота -59.05 высота над уровнем моря 52 м.

В архиве по умолчанию представлена погода в Ресистенсии за последнюю неделю. Архивные данные за месяц целиком и за предыдущие месяцы, начиная с января 2011 года, Вы можете получить, выбрав интересующий диапазон дат из раскрывающегося списка и нажав кнопку "Ввод!".


*Определитесь, кто Вы:
робот инопланетянин человек

Внимание! Время в таблицах - всемирное. Для получения местного времени необходимо прибавить поправку, которая равна -3 ч.

Смотрите также архив погоды в соседних городах и на ближайших метеорологических станциях:

Погода в Корриентесе (Аргентина) (29 км)
Погода в Пиларе (Парагвай) (99 км)
Погода в Формосе (Аргентина) (161 км)
Погода в Пресиденсиа-Роке-Саэнс-Пеньи (Аргентина) (163 км)
Погода в Реконкисте (Аргентина) (203 км)
Погода в Сан Хуан Батистута (Парагвай) (208 км)
Погода в Куйкуйо (Парагвай) (247 км)
Погода в Парагуари (Парагвай) (278 км)
Погода в Асунсьоне (Парагвай) (289 км)
Погода в Грал Бругуез (Парагвай) (300 км)

Пояснения к столбцам:

Ветер - указаны скорость ветра в м/с - средняя за 10 мин, порывы в срок и между сроками (в фигурных скобках) и направление, откуда дует ветер: С - северный, СВ - северо-восточный, В - восточный, ЮВ - юго-восточный, Ю - южный, ЮЗ - юго-западный, З - западный, СЗ - северо-западный.
Видимость - горизонтальная дальность видимости в метрах или километрах. При видимости от 1 до 10 км при отсутствии осадков обычно наблюдается дымка, при ухудшении видимости до 1 км и менее - туман. В сухую погоду видимость может ухудшаться дымом, пылью или мглою.
Явления - указаны атмосферные явления, наблюдавшиеся в срок или в последний час перед сроком; фигурными скобками обозначены явления, наблюдавшиеся между сроками (за 1-3 часа до срока); квадратными скобками обозначены град или гололедные отложения с указанием их диаметра в мм.
Облачность - указаны через наклонную черту общая и нижняя облачность в баллах и высота нижней границы облаков в метрах; квадратными скобками обозначены формы облаков: Ci - перистые, Cs - перисто-слоистые, Cc - перисто-кучевые, Ac - высококучевые, As - высокослоистые, Sc - слоисто-кучевые, Ns - слоисто-дождевые, Cu - кучевые, Cb - кучево-дождевые. Подробнее классификацию облаков см. в Атласе облаков (PDF).
T - Температура воздуха - температура, измеренная на высоте 2 м над землей.
Td - Температура точки росы - температура, при понижении до которой содержащийся в воздухе водяной пар достигнет насыщения.
f - Относительная влажность воздуха - влажноcть воздуха, измеренная на высоте 2 м над землей.
Te - Эффективная температура - температура, которую ощущает одетый по сезону человек в тени. Характеристика душности погоды. При расчете учитывается влияние влажности воздуха и скорости ветра на теплоощущения человека.
Tes - Эффективная температура на солнце - температура, которую ощущает человек, с поправкой на солнечный нагрев. Характеристика знойности погоды. Зависит от высоты солнца над горизонтом, облачности и скорости ветра. Ночью, в пасмурную погоду, а также при ветре 12 м/с и более поправка равна нулю.
P - Атмосферное давление - приведенное к уровню моря атмосферное давление.
Po - Атмосферное давление - измеренное на уровне метеостанции атмосферное давление.
Tmin - Минимальная температура - минимум температуры воздуха на высоте 2 м над землей.
Tmax - Максимальная температура - максимум температуры воздуха на высоте 2 м над землей.
R - Количество осадков - Количество выпавших осадков за период времени, мм. При наведении курсора мыши на число - период времени, за который выпало указанное количество осадков.
R24 - Количество осадков - Количество выпавших осадков за 24 часа, мм.
S - Снежный покров - Высота снежного покрова, см. При наведении курсора мыши на число - состояние снежного покрова и степень покрытия местности в баллах.